Regional Weather Roundup
Issued by NWS

Home | Current Version | Previous Version | Text Only | Print | Product List | Glossary On
Versions: 1 2 3 4 5 6 7 8 9 10 11 12 13 14 15 16 17 18 19 20 21 22 23 24 25 26 27 28 29 30 31 32 33 34 35 36 37 38 39 40 41 42 43 44 45 46 47 48 49 50
000
ASUS44 KOUN 150310
RWROK

WEATHER ROUNDUP FOR OKLAHOMA
NATIONAL WEATHER SERVICE NORMAN OK
900 PM CST THU DEC 14 2017

NOTE: "FAIR" INDICATES FEW OR NO CLOUDS BELOW 12,000 FEET WITH NO
      SIGNIFICANT WEATHER AND/OR OBSTRUCTIONS TO VISIBILITY.

OKZ001>007-009>012-014-015-017-150400-
NORTHWEST OKLAHOMA AND THE PANHANDLE

CITY           SKY/WX    TMP DP  RH WIND       PRES   REMARKS
GAGE           CLEAR     37  23  56 NW8       30.22R WCI  31
GUYMON         MOCLDY    32  30  92 NW6       30.28R WCI  26
ENID/WOODRING  MOCLDY    43  30  61 NW17      30.17R WCI  35
$$

OKZ016-021>023-033>039-044-045-150400-
SOUTHWEST OKLAHOMA

CITY           SKY/WX    TMP DP  RH WIND       PRES   REMARKS
LAWTON/REGL    CLEAR     33  25  72 CALM      30.20R
LAWTON/FT SILL MOCLDY    39  27  62 CALM      30.18R
FREDERICK      CLEAR     38  22  52 NW3       30.18R
CLINTON        PTCLDY    43  26  51 NW9       30.20R
HOBART         CLOUDY    39  25  57 NW7       30.21R WCI  34
ALTUS AFB      CLOUDY    42  22  44 NW7       30.21R
$$

OKZ018>020-024>031-150400-
CENTRAL OKLAHOMA

CITY           SKY/WX    TMP DP  RH WIND       PRES   REMARKS
OKLAHOMA CITY  PTCLDY    34  25  69 SW6       30.17R WCI  29
OKC/WILEY POST PTCLDY    31  27  85 W6        30.17R WCI  25
OKC/TINKER AFB CLEAR     38  26  63 SW6       30.16S WCI  33
STILLWATER     CLOUDY    39  27  62 SW3       30.15S
GUTHRIE        PTCLDY    40  28  62 CALM      30.17R
$$

OKZ008-013-054>072-150400-
NORTHEAST OKLAHOMA

CITY           SKY/WX    TMP DP  RH WIND       PRES   REMARKS
TULSA          CLOUDY    43  27  53 S8        30.16S
TULSA/JONES    CLOUDY    40  27  59 CALM      30.17S
PONCA CITY     CLOUDY    42  29  59 CALM      30.16R
BARTLESVILLE   CLOUDY    38  28  67 CALM      30.16S
MUSKOGEE       CLEAR     33  26  75 CALM      30.18S
$$

OKZ032-040>043-046>053-073>077-150400-
SOUTH CENTRAL/SOUTHEAST OKLAHOMA

CITY           SKY/WX    TMP DP  RH WIND       PRES   REMARKS
ARDMORE/DWNTWN CLEAR     37  25  60 CALM      30.20R
MCALESTER      PTCLDY    30  25  81 CALM      30.17S
$$





USA.gov is the U.S. government's official web portal to all federal, state and local government web resources and services.